New York JFK, NY

7:48 AM EDT on May 26, 2017 (GMT -0400)
Kennedy International

Weather History for KJFK - October, 2012

Change the Weather History Date:

Tuesday, October 9, 2012

  Actual Average Record
Temperature  
Mean Temperature 56 °F 59 °F  
Max Temperature 59 °F 67 °F 87 °F (2011)
Min Temperature 52 °F 52 °F 35 °F (2001)
Degree Days  
Heating Degree Days 9 6  
Month to date heating degree days 38 46  
Since 1 July heating degree days 49 85  
Cooling Degree Days 0 1  
Month to date cooling degree days 17 9  
Year to date cooling degree days 1229 1000  
Growing Degree Days 6 (Base 50)    
Moisture  
Dew Point 51 °F    
Average Humidity 76    
Maximum Humidity 86    
Minimum Humidity 66    
Precipitation  
Precipitation 0.03 in 0.13 in 1.22 in (1977)
Month to date precipitation 0.93 1.11  
Year to date precipitation 32.06 33.57  
Snow  
Snow 0.00 in 0.00 in - ()
Month to date snowfall 0.0 0.0  
Since 1 July snowfall 0.0 0.0  
Snow Depth 0.00 in    
Sea Level Pressure  
Sea Level Pressure 30.16 in    
Wind  
Wind Speed 11 mph (NE)    
Max Wind Speed 16 mph    
Max Gust Speed 20 mph    
Visibility 10 miles    
Events Rain    
T = Trace of Precipitation, MM = Missing Value Source: NWS Daily Summary

Daily Weather History Graph

Daily Weather History Graph

Search for Another Location

Airport or City:

Trip Planner

Search our weather history database for the weather conditions in past years. The results will help you decide how hot, cold, wet, or windy it might be!

Date:

Astronomy

Oct. 09, 2012 Rise Set
Actual Time 7:00 AM EDT 6:23 PM EDT
Civil Twilight 6:32 AM EDT 6:50 PM EDT
Nautical Twilight 6:01 AM EDT 7:22 PM EDT
Astronomical Twilight 5:29 AM EDT 7:54 PM EDT
Moon 12:32 AM EDT (10/9) 2:50 PM EDT (10/9)
Length of Visible Light 12h 17m
Length of Day
11h 23m
Last Quarter, 37% of the Moon is Illuminated
Oct 9
Last Quarter
Oct 15
New
Oct 21
First Quarter
Oct 29
Full
Nov 6
Last Quarter

Hourly Weather History & Observations

Time (EDT) Temp. Dew Point Humidity Pressure Visibility Wind Dir Wind Speed Gust Speed Precip Events Conditions
12:51 AM 52.0 °F 44.1 °F 74% 30.25 in 10.0 mi ENE 4.6 mph - N/A   Overcast
1:51 AM 52.0 °F 43.0 °F 71% 30.22 in 10.0 mi NNE 6.9 mph - N/A   Overcast
2:51 AM 53.1 °F 42.1 °F 66% 30.21 in 10.0 mi NNE 9.2 mph - N/A   Overcast
3:51 AM 53.1 °F 42.1 °F 66% 30.20 in 10.0 mi NNE 9.2 mph - N/A   Overcast
4:51 AM 54.0 °F 46.9 °F 77% 30.20 in 10.0 mi NNE 8.1 mph - N/A   Overcast
5:51 AM 54.0 °F 48.0 °F 80% 30.20 in 10.0 mi North 8.1 mph - N/A   Overcast
6:51 AM 55.0 °F 48.0 °F 77% 30.19 in 10.0 mi NE 11.5 mph - N/A   Overcast
7:51 AM 55.0 °F 48.9 °F 80% 30.19 in 10.0 mi NNE 12.7 mph - N/A   Overcast
8:45 AM 55.4 °F 51.8 °F 88% 30.20 in 10.0 mi NNE 10.4 mph - 0.00 in Rain Light Rain
8:51 AM 55.0 °F 51.1 °F 86% 30.20 in 10.0 mi NNE 11.5 mph - 0.00 in   Overcast
9:33 AM 55.4 °F 51.8 °F 88% 30.19 in 7.0 mi NE 11.5 mph - 0.02 in Rain Light Rain
9:51 AM 55.0 °F 53.1 °F 93% 30.20 in 7.0 mi NNE 10.4 mph - 0.02 in Rain Light Rain
10:24 AM 57.2 °F 53.6 °F 88% 30.19 in 10.0 mi NE 11.5 mph - 0.00 in   Overcast
10:51 AM 57.0 °F 53.1 °F 87% 30.20 in 10.0 mi NNE 9.2 mph - 0.00 in   Overcast
11:36 AM 57.2 °F 53.6 °F 88% 30.19 in 8.0 mi NNE 10.4 mph - 0.00 in Rain Light Rain
11:51 AM 57.0 °F 53.1 °F 87% 30.18 in 8.0 mi NE 10.4 mph - 0.00 in Rain Light Rain
12:51 PM 57.9 °F 54.0 °F 87% 30.16 in 9.0 mi NE 9.2 mph - 0.01 in Rain Light Rain
1:51 PM 57.9 °F 54.0 °F 87% 30.14 in 10.0 mi NE 10.4 mph - 0.00 in   Overcast
2:31 PM 57.2 °F 53.6 °F 88% 30.14 in 9.0 mi NE 13.8 mph - N/A   Overcast
2:51 PM 57.9 °F 54.0 °F 87% 30.13 in 7.0 mi NE 13.8 mph - 0.00 in   Light Drizzle
3:09 PM 57.2 °F 55.4 °F 94% 30.14 in 7.0 mi NE 9.2 mph - 0.00 in   Light Drizzle
3:51 PM 57.9 °F 55.0 °F 90% 30.13 in 7.0 mi NE 12.7 mph - 0.00 in Rain Light Rain
4:37 PM 57.2 °F 55.4 °F 94% 30.13 in 10.0 mi NE 10.4 mph - 0.00 in   Overcast
4:51 PM 57.9 °F 55.0 °F 90% 30.12 in 10.0 mi NE 11.5 mph - 0.00 in   Overcast
5:47 PM 57.2 °F 53.6 °F 88% 30.12 in 10.0 mi NE 15.0 mph - N/A   Overcast
5:51 PM 57.9 °F 53.1 °F 84% 30.12 in 10.0 mi NE 13.8 mph - N/A   Overcast
6:42 PM 57.2 °F 53.6 °F 88% 30.12 in 10.0 mi NE 11.5 mph - N/A   Overcast
6:51 PM 57.0 °F 53.1 °F 87% 30.12 in 10.0 mi NE 12.7 mph - N/A   Overcast
7:51 PM 57.0 °F 53.1 °F 87% 30.12 in 10.0 mi ENE 15.0 mph - N/A   Overcast
8:51 PM 57.9 °F 53.1 °F 84% 30.11 in 10.0 mi ENE 12.7 mph - N/A   Overcast
9:32 PM 57.2 °F 53.6 °F 88% 30.11 in 10.0 mi ENE 12.7 mph - N/A   Overcast
9:51 PM 57.9 °F 53.1 °F 84% 30.11 in 10.0 mi ENE 12.7 mph - N/A   Overcast
10:51 PM 57.9 °F 53.1 °F 84% 30.10 in 10.0 mi ENE 9.2 mph - N/A   Overcast
11:51 PM 57.0 °F 53.1 °F 87% 30.08 in 10.0 mi ENE 11.5 mph - N/A   Overcast